This demonstration page uses our WeatherBlox Daily Observations layout. Learn more.

Left ArrowRight Arrow

Hourly Observations for September 26, 2022

Temp ( °F °C ) Dew Point ( °F °C ) Humidity (%) Winds ( mph kmh ) Pressure ( in mb ) Visibility ( mi km ) Precip ( " mm )
12:15 am 00:15 Clear 57 14 52 11 82 82 SW 7 11 29.82 1010 10 16 0.00 0.00
12:35 am 00:35 Clear 57 14 52 11 82 82 WSW 6 9 29.82 1010 10 16 0.00 0.00
12:55 am 00:55 Clear 55 13 52 11 88 88 SW 6 9 29.82 1010 10 16 0.00 0.00
1:15 am 01:15 Partly Cloudy 55 13 54 12 94 94 SW 6 9 29.81 1010 10 16 0.00 0.00
1:35 am 01:35 Mostly Cloudy 55 13 54 12 94 94 WSW 5 7 29.82 1010 10 16 0.00 0.00
1:55 am 01:55 Cloudy 57 14 50 10 77 77 NNW 13 20 29.84 1010 10 16 0.00 0.00
2:15 am 02:15 Mostly Cloudy 57 14 48 9 72 72 NNW 7 11 29.83 1010 10 16 0.00 0.00
2:35 am 02:35 Partly Cloudy 54 12 48 9 82 82 NNW 5 7 29.83 1010 10 16 0.00 0.00
2:55 am 02:55 Mostly Cloudy 52 11 50 10 94 94 Calm 29.84 1010 10 16 0.00 0.00
3:15 am 03:15 Partly Cloudy 50 10 50 10 100 100 SW 5 7 29.83 1010 10 16 0.00 0.00
3:35 am 03:35 Partly Cloudy 52 11 52 11 100 100 WSW 5 7 29.83 1010 10 16 0.00 0.00
3:55 am 03:55 Partly Cloudy 50 10 50 10 100 100 SW 7 11 29.83 1010 10 16 0.00 0.00
4:15 am 04:15 Mostly Cloudy 50 10 50 10 100 100 WSW 6 9 29.83 1010 10 16 0.00 0.00
4:35 am 04:35 Partly Cloudy 50 10 50 10 100 100 WSW 7 11 29.83 1010 10 16 0.00 0.00
4:55 am 04:55 Partly Cloudy 50 10 50 10 100 100 WSW 7 11 29.83 1010 10 16 0.00 0.00
5:15 am 05:15 Partly Cloudy 50 10 50 10 100 100 WSW 7 11 29.83 1010 10 16 0.00 0.00
5:35 am 05:35 Clear 50 10 50 10 100 100 W 8 13 29.83 1010 10 16 0.00 0.00
5:55 am 05:55 Clear 50 10 50 10 100 100 W 7 11 29.84 1010 10 16 0.00 0.00
6:15 am 06:15 Clear 50 10 50 10 100 100 W 8 13 29.84 1010 10 16 0.00 0.00
6:35 am 06:35 Clear 50 10 50 10 100 100 W 7 11 29.84 1010 10 16 0.00 0.00
6:55 am 06:55 Partly Cloudy 50 10 50 10 100 100 W 7 11 29.85 1011 10 16 0.00 0.00
7:15 am 07:15 Partly Cloudy 50 10 50 10 100 100 W 8 13 29.85 1011 10 16 0.00 0.00
7:35 am 07:35 Partly Cloudy 50 10 50 10 100 100 W 8 13 29.86 1011 10 16 0.00 0.00
8:00 am 08:00 Sunny 50 10 50 10 100 100 W 9 15 29.87 1012 10 16 0.00 0.00
8:15 am 08:15 Sunny 50 10 50 10 100 100 W 9 15 29.87 1012 10 16 0.00 0.00
8:35 am 08:35 Sunny 52 11 50 10 94 94 W 9 15 29.88 1012 10 16 0.00 0.00
8:55 am 08:55 Sunny 54 12 48 9 82 82 W 8 13 29.87 1012 10 16 0.00 0.00
9:15 am 09:15 Sunny 54 12 46 8 76 76 W 12 19 29.87 1012 10 16 0.00 0.00
9:35 am 09:35 Sunny 55 13 46 8 72 72 WNW 12 19 29.88 1012 10 16 0.00 0.00
9:55 am 09:55 Sunny 57 14 45 7 63 63 WNW 12 19 29.88 1012 10 16 0.00 0.00
10:15 am 10:15 Sunny 59 15 46 8 63 63 W 13 20 29.89 1012 10 16 0.00 0.00
10:35 am 10:35 Sunny 59 15 46 8 63 63 W 16 26 29.89 1012 10 16 0.00 0.00
10:55 am 10:55 Sunny 59 15 45 7 59 59 W 16 26 29.89 1012 10 16 0.00 0.00
11:15 am 11:15 Sunny 61 16 45 7 55 55 W 14 22 29.88 1012 10 16 0.00 0.00
11:35 am 11:35 Sunny 61 16 45 7 55 55 W 17 28 29.88 1012 10 16 0.00 0.00
11:55 am 11:55 Sunny 61 16 45 7 55 55 WNW 16 26 29.89 1012 10 16 0.00 0.00
12:15 pm 12:15 Partly Cloudy 63 17 45 7 52 52 W 20 31 29.89 1012 10 16 0.00 0.00
12:35 pm 12:35 Mostly Cloudy 63 17 45 7 52 52 WNW 18 30 29.89 1012 10 16 0.00 0.00
12:55 pm 12:55 Mostly Cloudy 61 16 43 6 51 51 W 17 28 29.89 1012 10 16 0.00 0.00
1:15 pm 13:15 Mostly Cloudy 64 18 43 6 45 45 WNW 20 31 29.88 1012 10 16 0.00 0.00
1:35 pm 13:35 Partly Cloudy 64 18 43 6 45 45 WNW 17 28 29.88 1012 10 16 0.00 0.00
1:55 pm 13:55 Partly Cloudy 63 17 43 6 48 48 W 21 33 29.89 1012 10 16 0.00 0.00
2:15 pm 14:15 Mostly Cloudy 64 18 43 6 45 45 WNW 21 33 29.88 1012 10 16 0.00 0.00
2:35 pm 14:35 Partly Cloudy 64 18 45 7 49 49 W 15 24 29.88 1012 10 16 0.00 0.00
2:55 pm 14:55 Partly Cloudy 63 17 43 6 48 48 W 17 28 29.89 1012 10 16 0.00 0.00
3:15 pm 15:15 Partly Cloudy 66 19 43 6 43 43 W 17 28 29.88 1012 10 16 0.00 0.00
3:35 pm 15:35 Partly Cloudy 66 19 43 6 43 43 W 20 31 29.88 1012 10 16 0.00 0.00
3:55 pm 15:55 Partly Cloudy 64 18 43 6 45 45 W 15 24 29.88 1012 10 16 0.00 0.00
4:15 pm 16:15 Mostly Cloudy 64 18 41 5 42 42 W 13 20 29.88 1012 10 16 0.00 0.00
4:35 pm 16:35 Mostly Cloudy 66 19 45 7 46 46 W 17 28 29.88 1012 10 16 0.00 0.00
4:55 pm 16:55 Cloudy 66 19 43 6 43 43 W 22 35 29.88 1012 10 16 0.00 0.00
5:15 pm 17:15 Mostly Cloudy 64 18 43 6 45 45 W 16 26 29.90 1012 10 16 0.00 0.00
5:35 pm 17:35 Partly Cloudy 63 17 41 5 45 45 W 15 24 29.90 1013 10 16 0.00 0.00
5:55 pm 17:55 Mostly Cloudy 64 18 41 5 42 42 W 18 30 29.90 1012 10 16 0.00 0.00
6:15 pm 18:15 Cloudy 64 18 41 5 42 42 W 15 24 29.90 1012 10 16 0.00 0.00
6:35 pm 18:35 Mostly Cloudy 61 16 41 5 48 48 W 12 19 29.91 1013 10 16 0.00 0.00
6:55 pm 18:55 Partly Cloudy 61 16 41 5 48 48 WNW 10 17 29.91 1013 10 16 0.00 0.00
7:15 pm 19:15 Partly Cloudy 61 16 41 5 48 48 WNW 15 24 29.91 1013 10 16 0.00 0.00
7:35 pm 19:35 Partly Cloudy 59 15 41 5 51 51 WNW 8 13 29.92 1013 10 16 0.00 0.00
7:55 pm 19:55 Mostly Cloudy 57 14 41 5 55 55 WNW 8 13 29.93 1013 10 16 0.00 0.00
8:15 pm 20:15 Partly Cloudy 55 13 41 5 58 58 WNW 7 11 29.94 1014 10 16 0.00 0.00
8:35 pm 20:35 Partly Cloudy 54 12 43 6 67 67 W 5 7 29.94 1014 10 16 0.00 0.00
8:55 pm 20:55 Partly Cloudy 52 11 43 6 71 71 W 5 7 29.96 1014 10 16 0.00 0.00
9:15 pm 21:15 Partly Cloudy 52 11 43 6 71 71 W 3 6 29.97 1015 10 16 0.00 0.00
9:35 pm 21:35 Partly Cloudy 50 10 43 6 76 76 W 5 7 29.97 1015 10 16 0.00 0.00
9:55 pm 21:55 Partly Cloudy 50 10 43 6 76 76 W 6 9 29.97 1015 10 16 0.00 0.00
10:15 pm 22:15 Mostly Cloudy 52 11 43 6 71 71 W 5 7 29.98 1015 10 16 0.00 0.00
10:35 pm 22:35 Mostly Cloudy 50 10 45 7 82 82 WSW 6 9 29.98 1015 10 16 0.00 0.00
10:55 pm 22:55 Partly Cloudy 50 10 43 6 76 76 W 8 13 29.98 1015 10 16 0.00 0.00
11:15 pm 23:15 Partly Cloudy 50 10 43 6 76 76 W 8 13 29.99 1016 10 16 0.00 0.00
11:35 pm 23:35 Partly Cloudy 50 10 41 5 71 71 W 7 11 29.99 1016 10 16 0.00 0.00
11:55 pm 23:55 Clear 50 10 41 5 71 71 WNW 7 11 29.99 1016 10 16 0.00 0.00

Powered by AerisWeather